This demonstration page uses our WeatherBlox Daily Observations layout. Learn more.

Left ArrowRight Arrow

39.08367, -84.50855

Hourly Observations for July 31, 2015

Temp ( °F °C ) Dew Point ( °F °C ) Humidity (%) Winds ( mph kmh ) Pressure ( in mb ) Visibility ( mi km ) Precip ( " mm )
12:53 am 00:53 Clear 65 18.3 63 17.2 93 93 Calm 30.06 1018 10 16 0.00 0.00
1:53 am 01:53 Clear 64 17.8 63 17.2 96 96 Calm 30.06 1018 10 16 0.00 0.00
2:53 am 02:53 Clear 64 17.8 63 17.2 96 96 Calm 30.05 1018 10 16 0.00 0.00
3:53 am 03:53 Clear 62 16.7 62 16.7 100 100 Calm 30.05 1018 10 16 0.00 0.00
4:53 am 04:53 Clear 62 16.7 62 16.7 100 100 Calm 30.04 1017 9 14 0.00 0.00
5:40 am 05:40 Clear with Mist and Fog 63 17 63 17 100 100 Calm 30.00 1016 1 2 0.00 0.00
5:45 am 05:45 Clear with Mist and Fog 61 16.1 61 16.1 100 100 Calm 30.03 1017 3 5 0.00 0.00
5:53 am 05:53 Clear with Mist and Fog 62 16.7 61 16.1 96 96 Calm 30.03 1017 5 8 0.00 0.00
6:30 am 06:30 Clear with Mist and Fog 61 16 61 16 100 100 Calm 30.03 1017 2 3 0.00 0.00
6:37 am 06:37 Clear with Fog 62 16.7 62 16.7 100 100 Calm 30.03 1017 0 0 0.00 0.00
6:46 am 06:46 Sunny 63 17 63 17 100 100 Calm 30.03 1017 10 16 0.00 0.00
6:53 am 06:53 Sunny 62 16.7 62 16.7 100 100 Calm 30.04 1017 10 16 0.00 0.00
7:53 am 07:53 Sunny 65 18.3 65 18.3 100 100 Calm 30.06 1018 10 16 0.00 0.03
8:53 am 08:53 Sunny 71 21.7 65 18.3 81 81 SSW 3 6 30.06 1018 10 16 0.00 0.00
9:53 am 09:53 Sunny 76 24.4 67 19.4 74 74 VRB 5 7 30.05 1018 10 16 0.00 0.00
10:53 am 10:53 Sunny 80 26.7 66 18.9 62 62 VRB 3 6 30.04 1017 10 16 0.00 0.00
11:53 am 11:53 Sunny 84 28.9 66 18.9 55 55 W 8 13 30.04 1017 10 16 0.00 0.00
12:53 pm 12:53 Sunny 85 29.4 59 15 42 42 WNW 10 17 30.03 1017 10 16 0.00 0.00
1:53 pm 13:53 Sunny 86 30 60 15.6 42 42 WNW 13 20 30.01 1016 10 16 0.00 0.00
2:53 pm 14:53 Partly Cloudy 86 30 59 15 40 40 WNW 12 19 29.99 1016 10 16 0.00 0.00
3:53 pm 15:53 Mostly Sunny 87 30.6 59 15 39 39 W 12 19 29.98 1015 10 16 0.00 0.00
4:53 pm 16:53 Mostly Sunny 86 30 56 13.3 36 36 NW 9 15 29.97 1015 10 16 0.00 0.00
5:53 pm 17:53 Sunny 85 29.4 58 14.4 40 40 W 9 15 29.96 1014 10 16 0.00 0.00
6:53 pm 18:53 Mostly Sunny 84 28.9 60 15.6 44 44 WSW 10 17 29.94 1014 10 16 0.00 0.00
7:53 pm 19:53 Sunny 83 28.3 57 13.9 41 41 W 10 17 29.94 1014 10 16 0.00 0.00
8:53 pm 20:53 Clear 74 23.3 61 16.1 64 64 SSW 7 11 29.94 1014 10 16 0.00 0.00
9:53 pm 21:53 Mostly Clear 70 21.1 63 17.2 79 79 SSW 7 11 29.94 1014 10 16 0.00 0.00
10:53 pm 22:53 Partly Cloudy 72 22.2 63 17.2 73 73 SSW 9 15 29.95 1014 10 16 0.00 0.00
11:53 pm 23:53 Clear 75 23.9 62 16.7 64 64 W 7 11 29.96 1015 10 16 0.00 0.00

Powered by AerisWeather